Houlton, ME

4:15 AM EDT on August 18, 2017 (GMT -0400)
Houlton International

Weather History for KHUL - November, 2011

Change the Weather History Date:

Friday, November 25, 2011

  Actual Average Record
Temperature  
Mean Temperature 34 °F 29 °F  
Max Temperature 42 °F 37 °F 62 °F (1953)
Min Temperature 26 °F 21 °F 0 °F (1987)
Degree Days  
Heating Degree Days 31 36  
Month to date heating degree days 675 783  
Since 1 July heating degree days 1522 1919  
Cooling Degree Days 0 0  
Month to date cooling degree days 0 0  
Year to date cooling degree days 168 191  
Moisture  
Dew Point 31 °F    
Average Humidity 81    
Maximum Humidity 92    
Minimum Humidity 70    
Precipitation  
Precipitation 0.00 in 0.13 in 2.43 in (1983)
Month to date precipitation 1.52 3.37  
Year to date precipitation 40.05 36.05  
Sea Level Pressure  
Sea Level Pressure 29.92 in    
Wind  
Wind Speed 6 mph (SSW)    
Max Wind Speed 10 mph    
Max Gust Speed 16 mph    
Visibility 10 miles    
Events      
T = Trace of Precipitation, MM = Missing Value Source: NWS Daily Summary

Daily Weather History Graph

Daily Weather History Graph

Search for Another Location

Airport or City:

Trip Planner

Search our weather history database for the weather conditions in past years. The results will help you decide how hot, cold, wet, or windy it might be!

Date:

Astronomy

Nov. 25, 2011 Rise Set
Actual Time 6:45 AM EST 3:50 PM EST
Civil Twilight 6:11 AM EST 4:24 PM EST
Nautical Twilight 5:34 AM EST 5:01 PM EST
Astronomical Twilight 4:58 AM EST 5:36 PM EST
Moon 7:12 AM EST (11/25) 4:11 PM EST (11/25)
Length of Visible Light 10h 12m
Length of Day
9h 05m
New Moon, 0% of the Moon is Illuminated
Nov 25
New Moon
Dec 2
First Quarter
Dec 10
Full
Dec 17
Last Quarter
Dec 24
New

Hourly Weather History & Observations

Time (EST) Temp. Windchill Dew Point Humidity Pressure Visibility Wind Dir Wind Speed Gust Speed Precip Events Conditions
12:53 AM 27.0 °F 23.0 °F 24.1 °F 89% 30.02 in 10.0 mi SSW 3.5 mph - N/A   Mostly Cloudy
1:53 AM 28.9 °F 25.2 °F 26.1 °F 89% 30.02 in 10.0 mi SSW 3.5 mph - N/A   Overcast
2:53 AM 30.2 °F 25.4 °F 26.6 °F 86% 29.99 in 10.0 mi South 4.6 mph - N/A   Overcast
3:53 AM 30.0 °F 26.5 °F 26.1 °F 85% 30.00 in 10.0 mi Variable 3.5 mph - N/A   Mostly Cloudy
4:53 AM 30.0 °F 26.5 °F 27.0 °F 88% 30.01 in 10.0 mi SSW 3.5 mph - N/A   Overcast
5:53 AM 30.9 °F 24.3 °F 27.0 °F 85% 29.98 in 10.0 mi South 6.9 mph - N/A   Overcast
6:53 AM 32.0 °F 27.5 °F 28.0 °F 85% 30.00 in 10.0 mi SSW 4.6 mph - N/A   Overcast
7:53 AM 33.1 °F 26.9 °F 28.9 °F 85% 30.00 in 10.0 mi SSW 6.9 mph - N/A   Overcast
8:53 AM 34.0 °F 28.0 °F 28.9 °F 82% 29.99 in 10.0 mi SSW 6.9 mph - N/A   Overcast
9:53 AM 35.1 °F 27.9 °F 30.0 °F 82% 29.97 in 10.0 mi South 9.2 mph - N/A   Overcast
10:53 AM 37.0 °F 31.6 °F 30.9 °F 79% 29.94 in 10.0 mi SSW 6.9 mph - N/A   Overcast
11:53 AM 39.2 °F 34.2 °F 32.0 °F 75% 29.90 in 10.0 mi South 6.9 mph - N/A   Mostly Cloudy
12:05 PM 39.2 °F 34.2 °F 33.8 °F 81% 29.89 in 10.0 mi SW 6.9 mph - N/A   Scattered Clouds
12:53 PM 41.0 °F 36.4 °F 33.1 °F 73% 29.89 in 10.0 mi SSW 6.9 mph - N/A   Clear
1:53 PM 42.8 °F 38.0 °F 33.8 °F 70% 29.85 in 10.0 mi SSW 8.1 mph - N/A   Clear
2:53 PM 41.0 °F 36.4 °F 33.1 °F 73% 29.86 in 10.0 mi SSW 6.9 mph - N/A   Clear
3:53 PM 39.2 °F - 33.8 °F 81% 29.85 in 10.0 mi Calm Calm - N/A   Mostly Cloudy
4:53 PM 37.9 °F 34.4 °F 33.1 °F 83% 29.87 in 10.0 mi SW 4.6 mph - N/A   Overcast
5:53 PM 39.0 °F 35.7 °F 33.1 °F 79% 29.87 in 10.0 mi SSW 4.6 mph - N/A   Overcast
6:53 PM 37.9 °F 33.5 °F 33.1 °F 83% 29.86 in 10.0 mi SSW 5.8 mph - N/A   Overcast
7:53 PM 37.9 °F 33.5 °F 33.1 °F 83% 29.86 in 10.0 mi SSW 5.8 mph - N/A   Overcast
8:53 PM 37.9 °F 32.7 °F 33.1 °F 83% 29.86 in 10.0 mi South 6.9 mph - N/A   Overcast
9:53 PM 39.2 °F 35.0 °F 33.8 °F 81% 29.84 in 10.0 mi SSW 5.8 mph - N/A   Overcast
10:27 PM 39.2 °F 35.0 °F 33.8 °F 81% 29.85 in 10.0 mi SSW 5.8 mph - N/A   Overcast
10:53 PM 39.9 °F 35.8 °F 34.0 °F 79% 29.86 in 10.0 mi SSW 5.8 mph - N/A   Overcast
11:53 PM 41.0 °F 38.0 °F 35.1 °F 79% 29.87 in 10.0 mi SW 4.6 mph - N/A   Overcast